Weather History for Sedalia, MO

Change the Weather History Date:

Sunday, May 26, 2013

  Actual Average Record
Temperature  
Mean Temperature 75 °F 69 °F  
Max Temperature 85 °F 79 °F 93 °F (1953)
Min Temperature 64 °F 59 °F 37 °F (1988)
Degree Days  
Heating Degree Days 0 1  
Month to date heating degree days 137 78  
Since 1 July heating degree days 4736 4560  
Cooling Degree Days 10 5  
Month to date cooling degree days 80 76  
Year to date cooling degree days 106 110  
Growing Degree Days 24 (Base 50)    
Moisture  
Dew Point 65 °F    
Average Humidity 69    
Maximum Humidity 87    
Minimum Humidity 51    
Precipitation  
Precipitation 0.00 in 0.14 in 2.50 in (2000)
Month to date precipitation 4.84 3.96  
Year to date precipitation 18.56 14.42  
Sea Level Pressure  
Sea Level Pressure 30.02 in    
Wind  
Wind Speed 10 mph (South)    
Max Wind Speed 23 mph    
Max Gust Speed 29 mph    
Visibility 10 miles    
Events      
T = Trace of Precipitation, MM = Missing Value Source: NWS Daily Summary

Daily Weather History Graph

Daily Weather History Graph

Search for Another Location

Airport:

Trip Planner

Search our weather history database for the weather conditions in past years. The results will help you decide how hot, cold, wet, or windy it might be!

Date:

Astronomy

May. 26, 2013 Rise Set
Actual Time 5:52 AM CDT 8:27 PM CDT
Civil Twilight 5:21 AM CDT 8:58 PM CDT
Nautical Twilight 4:43 AM CDT 9:36 PM CDT
Astronomical Twilight 4:00 AM CDT 10:19 PM CDT
Moon 10:15 PM CDT (5/26) 7:22 AM CDT (5/26)
Length of Visible Light 15h 36m
Length of Day
14h 34m
Waning Gibbous, 96% of the Moon is Illuminated
May 26
Waning Gibbous
May 31
Last Quarter
Jun 8
New
Jun 16
First Quarter
Jun 23
Full

Hourly Weather History & Observations

Time (CDT) Temp. Heat Index Dew Point Humidity Pressure Visibility Wind Dir Wind Speed Gust Speed Precip Events Conditions
12:53 AM 66.9 °F - 62.1 °F 84% 30.09 in 10.0 mi SE 9.2 mph - N/A   Clear
1:53 AM 66.0 °F - 62.1 °F 87% 30.08 in 10.0 mi ESE 4.6 mph - N/A   Clear
2:53 AM 66.0 °F - 62.1 °F 87% 30.07 in 10.0 mi SSE 6.9 mph - N/A   Scattered Clouds
3:53 AM 66.0 °F - 62.1 °F 87% 30.08 in 10.0 mi SE 4.6 mph - N/A   Scattered Clouds
4:53 AM 64.0 °F - 61.0 °F 90% 30.07 in 10.0 mi South 6.9 mph - N/A   Clear
5:53 AM 64.0 °F - 61.0 °F 90% 30.06 in 10.0 mi South 8.1 mph - N/A   Clear
6:53 AM 66.0 °F - 62.1 °F 87% 30.06 in 10.0 mi South 6.9 mph - N/A   Clear
7:53 AM 70.0 °F - 64.0 °F 81% 30.07 in 10.0 mi South 9.2 mph - N/A   Scattered Clouds
8:53 AM 73.9 °F - 64.9 °F 73% 30.07 in 10.0 mi South 11.5 mph - N/A   Clear
9:53 AM 75.9 °F - 66.0 °F 71% 30.07 in 10.0 mi SSW 11.5 mph - N/A   Partly Cloudy
10:53 AM 78.1 °F - 68.0 °F 71% 30.06 in 10.0 mi South 12.7 mph - N/A   Partly Cloudy
11:53 AM 81.0 °F 83.8 °F 68.0 °F 65% 30.05 in 10.0 mi South 11.5 mph - N/A   Clear
12:53 PM 81.0 °F 83.8 °F 68.0 °F 65% 30.04 in 10.0 mi South 17.3 mph 21.9 mph N/A   Mostly Cloudy
1:53 PM 81.0 °F 83.3 °F 66.9 °F 62% 30.02 in 10.0 mi South 17.3 mph 23.0 mph N/A   Mostly Cloudy
2:53 PM 84.0 °F 86.3 °F 66.0 °F 55% 30.00 in 10.0 mi SSW 17.3 mph 25.3 mph N/A   Partly Cloudy
3:53 PM 84.0 °F 86.5 °F 66.9 °F 56% 29.98 in 10.0 mi South 11.5 mph - N/A   Mostly Cloudy
4:53 PM 84.0 °F 85.8 °F 64.9 °F 53% 29.96 in 10.0 mi South 16.1 mph 28.8 mph N/A   Partly Cloudy
5:53 PM 82.9 °F 85.0 °F 66.0 °F 56% 29.95 in 10.0 mi South 13.8 mph - N/A   Partly Cloudy
6:53 PM 82.0 °F 84.1 °F 66.0 °F 58% 29.95 in 10.0 mi South 6.9 mph - N/A   Scattered Clouds
7:53 PM 78.1 °F - 64.9 °F 64% 29.94 in 10.0 mi South 6.9 mph - N/A   Mostly Cloudy
8:53 PM 75.9 °F - 66.0 °F 71% 29.96 in 10.0 mi SSE 4.6 mph - N/A   Overcast
9:53 PM 75.0 °F - 64.0 °F 69% 29.96 in 10.0 mi South 6.9 mph - N/A   Clear
10:53 PM 71.1 °F - 64.0 °F 78% 29.96 in 10.0 mi South 6.9 mph - N/A   Mostly Cloudy
11:53 PM 73.0 °F - 64.0 °F 73% 29.97 in 10.0 mi South 8.1 mph - N/A   Overcast